Location: Kaarina
(60.4167°N, 22.4167°E)
Time: 20:35:12
(UTC+03:00)

Daily predictions for brighter satellites

Satellite Brightness Start Highest point End
(mag) Time Altitude Azimuth Time Altitude Azimuth Time Altitude Azimuth
ARGOS 3.8 21:37:50 10° S 21:43:07 59° WSW 21:48:27 10° NNW
ERS-1 Rocket 3.5 21:39:48 10° SE 21:44:36 47° ENE 21:49:26 10° NNW
Geosat 4.1 21:40:28 10° SE 21:45:31 87° NE 21:50:36 10° NW
H-2A R/B 2.8 21:43:28 10° S 21:48:18 51° W 21:53:08 10° NNW
NOSS 2-2 (D) 4.3 21:44:10 10° W 21:48:27 63° N 21:54:07 10° ENE
SL-08 RB Rocket 4.4 21:48:01 10° S 21:52:32 59° WSW 21:57:09 10° NNW
Cosmos 1943 4.3 21:47:45 10° WSW 21:53:19 50° NW 21:58:53 10° NE
Cosmos 1867 3.7 21:48:00 10° WNW 21:53:33 89° NE 21:59:02 10° ESE
COSMOS 2406 3.5 21:48:34 10° S 21:53:58 46° ESE 21:59:25 10° NE
Meteor 1-23 Rocket 4.3 21:48:58 10° NNW 21:54:47 85° ENE 22:00:28 10° SSE
Cosmos 2369 4.2 21:51:06 10° NW 21:56:40 58° WSW 22:02:12 10° SSE
Cosmos 1378 Rocket 3.9 21:53:14 10° NNW 21:57:38 69° W 22:02:03 10° S
Cosmos 1602 4.5 21:56:16 10° SSW 22:00:03 57° WNW 22:03:52 10° N
Iridium 2 4.0 21:56:52 10° SSE 22:00:29 47° E 22:04:09 10° NNE
Cosmos 2237 Rocket 4.0 21:55:55 10° WNW 22:00:49 29° N 22:05:43 10° ENE
NOSS 3-1 (C) 4.2 21:54:23 10° WNW 22:01:21 66° SW 22:09:26 10° SE
ATLAS 2AS CENTAUR R/B 3.4 21:53:28 10° W 22:01:34 72° N 22:09:21 10° ENE
Cosmos 1500 3.3 22:00:22 10° S 22:04:09 57° E 22:07:55 10° NNE
Cosmos 2098 Rocket 3.5 22:02:15 10° NNW 22:06:35 78° W 22:12:07 10° S
Resurs 01 Rocket 2.6 22:03:03 10° S 22:07:19 47° W 22:11:37 10° NNW
Cosmos 1733 Rocket 3.2 22:03:40 10° SSW 22:07:59 80° WNW 22:12:22 10° NNE
Lacrosse 4 Rocket 2.8 22:04:25 10° NW 22:08:20 34° NNE 22:12:10 10° E
Aureole 3 Rocket 2.2 22:06:24 10° S 22:09:33 58° E 22:12:34 10° NNE
BREEZE M DEB (TANK) 4.3 22:11:15 10° ESE 22:11:15 10° ESE 22:08:45 - SSE
SL-16 R/B 4.1 22:06:07 10° WNW 22:11:05 30° N 22:16:04 10° NE
Cosmos 1782 Rocket 4.2 22:07:26 10° SSE 22:11:31 38° E 22:15:36 10° NNE
SPOT 5 2.9 22:07:19 10° SE 22:11:32 53° ENE 22:15:52 10° NNW
Cosmos 990 Rocket 4.2 22:08:43 10° S 22:13:42 48° ESE 22:18:41 10° NE
Cosmos 1937 Rocket 3.9 22:11:47 10° S 22:16:48 44° ESE 22:21:50 10° NE
Spot 2 Rocket 4.0 22:12:40 10° S 22:17:43 63° WSW 22:22:47 10° NNW
Cosmos 1340 3.5 22:15:28 10° SSE 22:18:50 31° E 22:22:14 10° NNE
NOSS 2-2 (C) 4.4 22:19:29 10° W 22:23:54 63° N 22:29:48 10° E
Cosmos 1346 Rocket 3.3 22:20:47 10° SSE 22:24:22 38° E 22:28:00 10° NNE
Cosmos 2322 Rocket 2.5 22:19:39 10° NW 22:25:18 63° NE 22:30:27 12° ESE
Cosmos 1975 Rocket 3.2 22:23:44 10° NNW 22:28:11 79° WSW 22:32:39 10° S
USA 245 4.5 22:23:26 10° SSE 22:28:47 78° WSW 22:35:03 10° NNW
Cosmos 2333 Rocket 3.6 22:25:07 10° NW 22:30:17 34° NNE 22:35:27 10° E
EO 1 Del DPAF 4.0 22:32:03 10° NNE 22:35:33 34° E 22:38:25 14° SSE
Cosmos 1536 2.8 22:32:00 10° SSW 22:36:05 89° E 22:40:12 10° NNE
ADEOS Rocket 3.2 22:31:26 10° NNE 22:37:19 83° WNW 22:43:48 10° SSW
MTI 3.6 22:35:26 10° NNE 22:38:37 72° ESE 22:41:47 10° S
Cosmos 405 3.3 22:37:17 10° N 22:40:49 52° ENE 22:43:19 17° SE
IGS 5A 3.5 22:38:28 12° SSE 22:42:21 83° WSW 22:46:34 10° NNW
DMSP B5D2-2 4.1 22:37:24 10° NNE 22:42:42 85° ESE 22:47:59 10° SSW
Landsat 7 4.0 22:38:30 10° SSE 22:43:16 76° WSW 22:48:05 10° NNW
SPOT 1/Viking Rocket 3.7 22:38:16 10° SSE 22:43:30 78° WSW 22:48:46 10° NNW
Helios 1A 4.4 22:40:40 12° ESE 22:43:47 26° NE 22:47:20 10° N
Mayak 0.9 22:43:22 10° ENE 22:45:05 12° E 22:46:29 11° ESE
USA 32 4.1 22:41:08 10° N 22:46:25 80° W 22:51:39 10° S
Cosmos 1833 Rocket 2.9 22:41:09 10° S 22:46:35 50° ESE 22:52:01 10° NE
Cosmos 2154 Rocket 4.2 22:41:59 10° N 22:48:12 59° ENE 22:53:18 16° SE
GENESIS II 4.3 22:46:10 10° WSW 22:50:16 89° NW 22:54:26 10° ENE
GP-B 3.9 22:46:02 10° N 22:50:23 53° W 22:54:43 10° SSW
BREEZE-M DEB (TANK) 4.2 22:46:51 10° WSW 22:51:01 39° SSE 23:00:53 10° ESE
Cosmos 1743 3.1 22:49:43 16° SSE 22:52:27 43° E 22:56:06 10° NNE
Meteor 2-8 Rocket 4.5 22:46:56 10° S 22:52:54 65° E 22:58:55 10° NNE
Cosmos 2082 Rocket 2.5 22:47:57 10° S 22:53:16 43° ESE 22:58:38 10° NE
Cosmos 1697 Rocket 4.1 22:48:45 10° NW 22:53:42 32° WSW 22:58:38 10° S
Cosmos 2298 Rocket 4.4 22:49:00 10° S 22:54:02 45° ESE 22:59:07 10° NE
Cosmos 1300 Rocket 4.4 22:52:24 17° SE 22:55:07 34° E 22:59:03 10° NNE
CZ-2C R/B 2.6 22:50:39 10° NNE 22:55:55 71° ESE 23:01:17 10° S
CARTOSAT-1 3.6 22:52:21 14° SSE 22:56:02 81° WSW 23:00:24 10° NNW
NOSS 6 (C) 4.5 22:54:28 10° WSW 22:57:40 79° SSE 23:00:41 10° ENE
SL-24 R/B 4.3 22:54:11 10° NNE 22:57:59 39° E 23:00:14 19° SSE
SL-16 R/B 2.2 22:52:43 10° NW 22:58:27 89° SW 23:02:50 18° SE
Cosmos 2074 Rocket 4.1 22:52:52 10° NNW 22:59:14 88° WSW 23:04:55 13° S
APEX 3.9 22:55:45 10° NW 23:01:37 84° SW 23:04:55 20° SE
Cosmos 1666 2.6 22:58:22 10° SSW 23:02:13 89° ESE 23:06:03 10° NNE
NOSS 3-1 (A) 4.4 22:56:44 10° WNW 23:03:36 52° SW 23:10:05 16° SSE
Cosmos 1048 Rocket 4.5 23:02:44 10° NW 23:07:43 53° WSW 23:11:49 15° S
NOSS 3-4 (A) 4.0 23:01:39 10° W 23:08:03 69° N 23:15:06 10° E
NOSS 3-4 (C) 4.0 23:01:45 10° W 23:08:09 69° N 23:15:12 10° E
Cosmos 2184 Rocket 4.0 23:02:08 10° NNW 23:08:21 82° WSW 23:13:46 14° S
Cosmos 1908 Rocket 4.4 23:05:50 10° SSW 23:10:14 54° WNW 23:14:37 10° N
Meteor 1-11 Rocket 4.5 23:05:08 10° SW 23:11:01 60° WNW 23:16:58 10° NNE
COSMOS 2455 3.4 23:05:14 10° NW 23:11:13 59° NNE 23:17:12 10° ESE
SJ 16-02 1.4 23:07:10 10° SSW 23:11:36 85° WNW 23:16:06 10° NNE
Cosmos 389 Rocket 4.3 23:10:02 10° N 23:12:52 21° NE 23:14:49 14° E
Cosmos 2360 Rocket 2.4 23:07:37 10° NW 23:13:16 68° NE 23:17:33 18° SE
Terra 1.9 23:10:05 17° S 23:13:48 76° WSW 23:18:36 10° NNW
NOSS 2-2 (E) 4.3 23:09:42 10° WNW 23:14:30 73° NNE 23:21:04 10° ESE
USA 267 3.2 23:08:51 10° E 23:15:22 64° SSE 23:21:52 10° WSW
ARGOS Delta rocket 4.4 23:11:34 19° SE 23:15:23 59° ENE 23:20:48 10° N
Cosmos 1898 Rocket 3.7 23:10:53 10° SW 23:16:09 74° NW 23:21:24 10° NNE
NOSS 7 (D) 4.4 23:13:56 10° WNW 23:16:42 59° NNE 23:18:43 18° E
Cosmos 1025 Rocket 3.0 23:13:13 10° NNW 23:17:38 89° WSW 23:20:31 21° SSE
Cosmos 1536 Rocket 3.6 23:13:15 10° NNW 23:17:42 78° W 23:20:50 19° S
Cosmos 2219 Rocket 3.1 23:12:34 10° NW 23:17:57 43° NNE 23:23:18 10° ESE
Cosmos 2315 Rocket 4.3 23:11:42 10° SSW 23:18:04 74° WNW 23:24:25 10° NNE
Okean 2 4.2 23:14:10 10° NNW 23:18:08 47° W 23:21:33 13° SSW
Cosmos 1980 Rocket 3.4 23:13:07 10° NW 23:18:09 34° WSW 23:22:50 12° S
OPS 8737 4.2 23:16:35 10° WNW 23:19:36 81° NNE 23:21:45 21° ESE
Genesis I 4.0 23:15:44 10° WNW 23:19:43 53° NNE 23:23:38 10° E
Cosmos 1544 4.4 23:20:18 21° ESE 23:21:14 23° E 23:24:09 10° NE
Cosmos 1842 3.3 23:17:52 10° NNW 23:21:49 78° WSW 23:24:17 22° S
COSMOS 2428 3.5 23:16:38 10° NW 23:22:09 46° NNE 23:27:25 11° ESE
Thor Agena Rocket 3.6 23:18:12 10° NNE 23:23:23 65° ESE 23:27:48 14° S
ERS-1 Rocket 3.9 23:18:46 10° S 23:23:31 43° W 23:28:19 10° NNW
Okean 1-7 Rocket 4.4 23:20:58 10° N 23:25:09 39° ENE 23:27:36 21° ESE
Okean 2 Rocket 3.0 23:22:46 15° S 23:26:24 81° ESE 23:30:51 10° NNE
MOS 1 Rocket 3.7 23:21:42 10° NNE 23:27:03 64° E 23:31:17 17° S
Iridium 96 4.0 23:27:24 34° SSE 23:28:28 64° E 23:31:36 10° N
Meteor 1-21 4.4 23:23:28 10° NNW 23:29:08 73° WSW 23:33:19 18° S
Cosmos 1707 3.1 23:26:08 10° N 23:29:55 52° ENE 23:31:47 27° SE
Cosmos 1269 Rocket 4.3 23:25:52 10° NW 23:31:07 63° WSW 23:34:35 21° S
IRAS Rocket 4.3 23:27:17 21° SSE 23:31:10 82° ENE 23:36:47 10° NNW
Cosmos 1378 3.6 23:30:15 10° NNW 23:33:56 55° W 23:36:11 21° S
Cosmos 2341 Rocket 4.1 23:27:32 10° NNW 23:33:57 72° ENE 23:38:16 22° SSE
COSMOS 2406 3.8 23:32:33 10° WSW 23:38:13 61° NW 23:43:57 10° NE
Cosmos 494 Rocket 4.4 23:33:12 10° NW 23:38:14 54° WSW 23:41:29 21° S
Cosmos 1125 Rocket 3.8 23:35:47 20° S 23:39:12 48° ESE 23:44:17 10° NE
NOSS 2-2 (D) 4.2 23:34:44 10° WNW 23:39:32 78° NNE 23:46:05 10° ESE
COSMOS 2487 4.5 23:41:17 14° E 23:41:17 14° E 23:42:56 10° ENE
Sich 1 Rocket 4.3 23:37:08 10° SSW 23:41:33 54° WNW 23:45:58 10° N
Cosmos 1975 2.8 23:43:12 19° SSW 23:45:59 84° WNW 23:50:01 10° NNE
SL-27 R/B 2.5 23:44:29 28° S 23:46:12 60° ESE 23:49:50 10° NE
Cosmos 2237 Rocket 3.4 23:41:00 10° NW 23:46:18 39° NNE 23:51:37 10° E
Lacrosse 4 Rocket 1.4 23:43:18 10° NW 23:47:32 80° NE 23:49:46 27° SE
Cosmos 839 Rocket 4.3 23:40:47 10° SW 23:48:45 90° NW 23:55:18 10° NE
Landsat 4 3.8 23:45:45 10° NNE 23:49:30 58° ESE 23:51:04 31° S
Cosmos 2322 3.8 23:43:56 10° NW 23:49:42 75° NE 23:53:33 22° SE
SPOT 5 4.1 23:46:29 12° SSW 23:49:55 31° W 23:53:52 10° NNW
Helios 1B rocket 4.3 23:47:31 10° NE 23:50:12 16° E 23:51:05 16° ESE
Cosmos 1441 Rocket 4.3 23:51:00 27° ESE 23:51:59 30° E 23:55:29 10° NNE
Cosmos 1674 4.1 23:49:44 10° N 23:53:08 29° ENE 23:54:50 20° ESE
ALOS 2 3.2 23:51:38 24° SE 23:53:55 48° ENE 23:58:10 10° N
Cosmos 1340 4.0 23:50:50 10° SW 23:54:25 39° WNW 23:58:01 10° N
ERS-2 4.2 23:53:43 13° E 23:55:51 21° NE 23:58:36 10° N
